Regional Weather Roundup
Issued by NWS Wakefield, VA

Home | Current Version | Previous Version | Graphics & Text | Print | Product List | Glossary On
Versions: 1 2 3 4 5 6 7 8 9 10 11 12 13 14 15 16 17 18 19 20 21 22 23 24 25 26 27
000
ASUS41 KAKQ 262314
RWRAKQ

REGIONAL WEATHER ROUNDUP
NATIONAL WEATHER SERVICE WAKEFIELD VA
600 PM EST SUN FEB 26 2017

Note: "fair" indicates few or no clouds below 12,000 feet with no
significant weather and/or obstructions to visibility. * = Denotes
station may not report precipitation (e.g., rain,snow,etc.),
thunder or fog.

VAZ042-051-052>054-056-270000-
NORTHERN VIRGINIA

CITY           SKY/WX    TMP DP  RH WIND       PRES   REMARKS
WASH NATIONAL  CLEAR     46  19  34 N8        30.21R
DULLES         PTCLDY    45  15  30 NW7       30.19R
FORT BELVOIR   CLEAR     47  17  29 VRB3      30.20R
QUANTICO       CLEAR     49  16  26 W3        30.21R
FREDERICKSBRG* CLEAR     49  20  31 SW5       30.19R
STAFFORD*      CLEAR     47  15  27 CALM      30.23R
WARRENTON      CLEAR     46  11  24 S3        30.19R
CULPEPER*      CLEAR     47  19  33 CALM      30.19R
MANASSAS*      CLEAR     46  19  34 N8        30.21R
LEESBURG*      CLEAR     45  21  39 MISG      30.20R
WINCHESTER     CLEAR     39  14  35 W8        30.18R
FRONT ROYAL*   CLEAR     43  12  28 NW6       30.17R
LURAY*         CLEAR     45  14  29 W5        30.18R
$$

VAZ048-049-060>072-079>083-270000-
CENTRAL AND SOUTH CENTRAL VIRGINIA

CITY           SKY/WX    TMP DP  RH WIND       PRES   REMARKS
RICHMOND       CLEAR     49  16  26 SW3       30.20R
CHESTERFIELD*  FAIR      48  12  23 W3        30.22R
PETERSBURG*    CLEAR     44  25  46 CALM      30.22R
HANOVER        CLEAR     47  17  30 W5        30.21R
TAPPAHANNOCK*  CLEAR     48   2  15 CALM      30.21R
QUINTON*       NOT AVBL
CHARLOTTSVILLE CLEAR     51   9  18 VRB3      30.17R
GORDONSVILLE*  CLEAR     49  15  25 CALM      30.17R
ORANGE*        CLEAR     46  16  29 CALM      30.19R
LOUISA*        CLEAR     52  19  28 CALM      30.17R
BUMPASS*       NOT AVBL
FARMVILLE*     CLEAR     49  19  29 CALM      30.19R
CREWE*         FAIR      49  20  31 SW3       30.20R
FORT PICKETT*  NOT AVBL
CHASE CITY*    NOT AVBL
CLARKSVILLE*   FAIR      50  19  29 CALM      30.21R
SOUTH HILL*    CLEAR     48  22  36 CALM      30.27R
LAWRENCEVILLE* NOT AVBL
EMPORIA*       CLEAR     46  21  36 CALM      30.24R
$$

VAZ088>098-270000-
SOUTHEAST VIRGINIA

CITY           SKY/WX    TMP DP  RH WIND       PRES   REMARKS
NORFOLK        CLEAR     47  29  49 SE7       30.21R
VIRGINIA BEACH CLEAR     42  26  53 SE6       30.22R
NORFOLK NAVAL  CLEAR     47  32  56 E6        30.23R
WEST POINT*    CLEAR     48  19  30 CALM      30.23R
SALUDA*        FAIR      43  27  53 SE6       30.22R
NEWPORT NEWS   CLEAR     43  32  65 E10       30.21R
LANGLEY AFB    CLEAR     43  33  68 NE7       30.21R
FORT EUSTIS    CLEAR     49  23  36 NW6       30.19R
WILLIAMSBURG*  CLEAR     50  25  37 NW3       30.22R
HR EXEC AP*    FAIR      48  23  37 W3        30.19R
FRANKLIN*      CLEAR     49  20  32 CALM      30.23R
US460-WAKEFLD  CLEAR     47  27  45 CALM      30.22R
$$

VAZ020-022-025-037-045-270000-
WEST CENTRAL AND SOUTHWEST VIRGINIA

CITY           SKY/WX    TMP DP  RH WIND       PRES   REMARKS
STAUNTON*      CLEAR     44  10  25 NW6       30.19R
WAYNESBORO*    CLEAR     45   3  17 CALM      30.17R
HOT SPRINGS VA CLEAR     34   0  23 W13G20    30.12R WCI  25
LYNCHBURG      CLEAR     48  10  21 W6        30.20R
DANVILLE       CLEAR     50  18  28 CALM      30.20R
SOUTH BOSTON*  FAIR      51  11  20 CALM      30.20R
MARTINSVILLE   CLEAR     47  14  26 NW3       30.22R
ROANOKE        CLEAR     48   8  19 NW12      30.21R
BLACKSBURG     CLEAR     43  13  29 NW7       30.21R
DUBLIN*        CLEAR     44  12  27 W5        30.19R
MARION*        CLEAR     42  15  33 SW6       30.21R
HILLSVILLE*    CLEAR     42  15  33 CALM      30.16R
RICHLANDS*     FAIR      41  13  32 CALM      30.17S
WISE*          CLEAR     43  12  28 CALM      30.17S
ABINGDON*      CLEAR     46  14  28 W6        30.20R
$$

MDZ021>025-VAZ099-100-270000-
SOUTHERN MARYLAND AND THE DELMARVA PENINSULA

CITY           SKY/WX    TMP DP  RH WIND       PRES   REMARKS
PATUXENT RIVER PTCLDY    45  25  45 N6        30.20R
BAY BRIDGE APT CLEAR     43  23  45 N3        30.21R
LEONARDTOWN    CLEAR     43  23  45 CALM      30.22R
DOVER          CLEAR     42  22  44 W12       30.19R
GEORGETOWN     CLEAR     44  19  36 W5        30.21R
EASTON         CLEAR     43  19  39 N5        30.24R
CAMBRIDGE      CLEAR     41  23  48 CALM      30.21R
SALISBURY      CLEAR     41  21  44 NW7       30.21R
OCEAN CITY     CLEAR     42  19  39 NW6       30.21R
WALLOPS ISLAND CLEAR     42  21  43 W3        30.22R
ACCOMACK*      CLEAR     41  26  55 CALM      30.22R
$$

NCZ012>017-030>032-270000-
NORTH CENTRAL AND EASTERN NORTH CAROLINA

CITY           SKY/WX    TMP DP  RH WIND       PRES   REMARKS
ROANOKE RAPIDS FAIR      50  25  37 CALM      30.23R
RALEIGH        PTCLDY    53  14  21 CALM      30.22R
ELIZABETH CITY CLEAR     47  34  60 E8        30.22R
AHOSKIE*         N/A     49  21  33 NW3       30.23R
EDENTON*       CLEAR     54  24  30 W3        30.22R
CURRITUCK*     CLEAR     46  33  61 E3        30.23R
KILL DEVIL HLS NOT AVBL
MANTEO         CLEAR     45  34  66 SE7       30.23R
CAPE HATTERAS  CLEAR     49  34  56 CALM      30.22R
TARBORO*       NOT AVBL
GOLDSBORO      NOT AVBL
WASHINGTON     CLEAR     53  20  27 NW3       30.22R
GREENVILLE     CLEAR     54  19  26 NW3       30.23R
NEW BERN       CLEAR     53  23  31 W3        30.23R
WILMINGTON     CLEAR     55  21  26 W7        30.23R
$$

VAZ048-270000-
ELSEWHERE

CITY           SKY/WX    TMP DP  RH WIND       PRES   REMARKS
HARRISBURG PA  PTCLDY    39  20  46 W13       30.19R
BALTIMORE      CLEAR     42  20  41 NW8       30.20R
ANNAPOLIS      CLEAR     46  23  40 NW7       30.20R
ANDREWS AFB    CLEAR     44  17  33 W5        30.19R
PHILADELPHIA   PTCLDY    42  16  34 W15       30.19R
HENDERSON NC   CLEAR     47  15  28 CALM      30.22R
GREENSBORO     PTCLDY    51  12  21 W5        30.19R
ROCKY MOUNT    CLEAR     52  19  27 W3        30.22R
$$

VAZ100-270000-
MARINE

STATION/POSITION TIME  TEMP    WIND        PRES    WAVE   SWELL
                       AIR SEA DIR/SP/G            HT/PER HT/PER
                 (UTC) (F)     (DEG/KT/KT) (MB)    (FT/S) (FT/S)
CAPE MAY NJ      2248   43 46  300/ 10/ 16 1022.0R
LEWES DE         2248   44 45  300/ 14/ 17 1022.5R
OCEAN-CITY-INLET 2248   44 47  310/  6/  7 1023.3R
WACHAPREAGUE VA  2248   44 54   CALM  /  1 1023.3R
THOMAS POINT MD  2300   45 44  340/  7/  8   N/A
GOOSES REEF MD   2300   46 45  360/  6/  6 1023.5    1
COVE POINT MD    2248   45      10/  3/  8 1023.2R
SOLOMONS ISLAND  2248   47 45  330/  5/  6   N/A
BISHOPS HEAD MD  2248   44 50  340/  4/  6 1023.0R
PINEY POINT MD   2248          290/  2/  2   N/A
POTOMAC MD       2300   46 45  310/  4/  6 1022.2    0
CAMBRIDGE MD     2248   44 47  280/  2/  4 1022.2R
LEWISETTA VA     2248   46 49  350/  4/  5 1022.7R
RAPPAHANNOCK LGT 2248           50/  7/  8 1023.8R
YORK RVR RNG VA  2248   44      70/ 11/ 12 1022.5R
YORKTOWN VA      2248   44 50   80/  8/ 10 1022.8R
JAMESTOWN VA     2300   51 54  300/  8/ 10   N/A     0
DOMINION TERM VA 2248   51     340/  6/  8 1022.9R
KIPTOPEKE VA     2248      51  350/  3/  5   N/A
CHES BAY BRIDGE  2248   46 48  110/  3/  4 1023.2R
CAPE HENRY VA    2248   45     130/  4/  7   N/A
WILLOUBY STN VA  2248   46      40/  8/  8 1023.9R
S CRANEY ISL VA  2248   52     320/  3/  4 1022.6R
CAPE HENRY BUOY  2242      48                N/A     3/10
OFFSHORE WE BUOY 2251      48                N/A     4/ 9   2/11
64NM E OF VA BCH 2250   44 51  360/  4/  8 1023.4R   4/10   5/10
DUCK PIER NC     2248   45 49  100/  9/ 10 1022.9R
44100 DUCK FRF   2205      50                N/A     4/ 9   2/11
44056 DUCK FRF   2230      50                N/A     4/10   2/11
OREGON INLET NC  2248          100/  5/  7 1023.3R
HATTERAS NC      2248   52 61  230/  3/  5 1022.8R
DIAMOND SHLS NC  2250   54 72  290/  4/  8 1023.4R   4/ 9   3/ 9
CAPE LOOKOUT NC  2300   54     230/  6/  8 1023.0R
$$




USA.gov is the U.S. government's official web portal to all federal, state and local government web resources and services.